Regional Weather Roundup
Issued by NWS

Home | Current Version | Previous Version | Graphics & Text | Print | Product List | Glossary On
Versions: 1 2 3 4 5 6 7 8 9 10 11 12 13 14 15 16 17 18 19 20 21 22 23 24 25 26 27 28 29 30 31 32 33 34 35 36 37 38 39 40 41 42 43 44 45 46 47 48 49 50
000
ASUS43 KMPX 241901
RWRMN
WEATHER ROUNDUP FOR MINNESOTA
NATIONAL WEATHER SERVICE TWIN CITIES/CHANHASSEN MN
200 PM CDT THU APR 24 2014


NOTE: "FAIR" INDICATES FEW OR NO CLOUDS BELOW 12,000 FEET WITH NO
SIGNIFICANT WEATHER AND/OR OBSTRUCTIONS TO VISIBILITY. N/A MEANS
CURRENT SKY AND/OR WEATHER CONDITIONS ARE NOT AVAILABLE.

MNZ060>063-068>070-242000-
   Twin Cities Metro

CITY           SKY/WX    TMP DP  RH WIND       PRES   REMARKS
TWIN CITIES    LGT RAIN  42  42 100 SE6       29.71S FOG
ST PAUL        LGT RAIN  42  41  96 E3        29.72S FOG
CRYSTAL        CLOUDY    43  40  89 E5        29.70F FOG
BLAINE         DRIZZLE   43  43 100 E5        29.71F
EDEN PRAIRIE   CLOUDY    43  41  93 E5        29.69S FOG
LAKEVILLE      DRIZZLE   39  39 100 E3        29.69F
SOUTH ST PAUL  CLOUDY    44  43  95 E3        29.70F FOG
LAKE ELMO      DRIZZLE   41  41 100 E5        29.71F
$$
MNZ001>005-007-008-013>017-022>024-027-028-242000-
   Northwest Minnesota

CITY           SKY/WX    TMP DP  RH WIND       PRES   REMARKS
BEMIDJI        HVY RAIN  37  36  96 E9        29.74F
HALLOCK          N/A     41  37  87 SE9       29.73F
ROSEAU         RAIN      37  34  87 SE8       29.76F
WARROAD        MIX PCPN  39  36  87 E8        29.78F
THIEF RVR FALL CLOUDY    37  34  87 E9        29.74F
CROOKSTON      CLOUDY    39  39 100 SE6       29.73S
FOSSTON        RAIN      36  36 100 SE5       29.73F
DETROIT LAKES  LGT RAIN  36  34  93 E5        29.71F
MOORHEAD       CLOUDY    45  45 100 W7        29.71R
PARK RAPIDS    RAIN      35  34  96 E6        29.72F FOG     WCI  30
$$
MNZ006-009>011-018-025>026-242000-
   North Central Minnesota

CITY           SKY/WX    TMP DP  RH WIND       PRES   REMARKS
BAUDETTE       LGT RAIN  39  37  92 SE10      29.79F
FLAG ISLAND    LGT RAIN  37  36  93 E7        29.79F
INTL FALLS     LGT RAIN  38  36  92 E10       29.82S
WASKISH        LGT RAIN  37  37 100 E10       29.77F
BIG FORK       CLOUDY    37  36  93 E6        29.79F
LONGVILLE      RAIN      36  36 100 E5        29.75F
GRAND RAPIDS   CLOUDY    36  32  87 E7        29.77F
CRANE LAKE     LGT RAIN  37  37 100 E5        29.87S
ORR            CLOUDY    36  34  93 E5        29.79F
COOK           RAIN      37  34  87 E10G16    29.81F
$$
MNZ012-019>021-037-242000-
   Northeast Minnesota

CITY           SKY/WX    TMP DP  RH WIND       PRES   REMARKS
DULUTH         HVY SNOW  33  31  92 E23G31    29.79F VSB 1/4 WCI  21
ELY            FLURRIES  36  34  93 E14       29.85F
HIBBING        RAIN      36  33  89 E13       29.79F FOG
EVELETH        LGT RAIN  34  34 100 E8G16     29.81F WCI  27
DULUTH HARBOR  MIX PCPN  34  30  86 NE18      29.83F WCI  23
TWO HARBORS    SNOW      32  27  80 E18G25    29.83F VSB 1/2 WCI  20
SILVER BAY     LGT SNOW  30  30 100 NE14G21   29.87F VSB 1   WCI  20
GRAND MARAIS     N/A     37  29  72 E14G20    29.98F
G MARAIS ARPRT LGT SNOW  34  21  60 E16G23    29.94F WCI  23
$$
MNZ029>031-032-039>041-046>048-054>057-064-242000-
   West Central Minnesota

CITY           SKY/WX    TMP DP  RH WIND       PRES   REMARKS
FERGUS FALLS   CLOUDY    41  37  87 SE5       29.68R
WHEATON        CLOUDY    48  46  93 CALM      29.74S
MORRIS         CLOUDY    46  43  87 CALM      29.71R
ALEXANDRIA     LGT RAIN  39  37  92 NE7       29.69F
ELBOW LAKE     PTSUNNY   40  38  92 E6        29.70R
WADENA         RAIN      36  34  93 CALM      29.72F
GLENWOOD       LGT RAIN  39  39 100 NE17      29.67F
APPLETON       CLOUDY    48  45  87 N3        29.72R
BENSON         CLOUDY    45  41  87 CALM      29.72R
ORTONVILLE     CLOUDY    48  41  76 W5        29.72S
MADISON        CLOUDY    52  45  76 NW6       29.73R
WILLMAR        LGT RAIN  45  43  93 E10       29.70F
$$
MNZ033>034-036-042>043-049>051-058-059-242000-
   Central Minnesota

CITY           SKY/WX    TMP DP  RH WIND       PRES   REMARKS
ST CLOUD       LGT RAIN  41  38  89 SE5       29.72F
SAUK CENTRE    RAIN      39  38  96 E6        29.72S
PAYNESVILLE    RAIN      40  39  95 CALM      29.72S
AITKIN         LGT RAIN  37  32  81 CALM      29.74F
PINE RIVER     LGT RAIN  37  36  93 E7        29.78F
BRAINERD       LGT RAIN  41  34  76 E6        29.75S
STAPLES        RAIN      37  36  93 SE3       29.73F
LONG PRAIRIE   CLOUDY    37  36  93 CALM      29.73F
LITTLE FALLS   MIX PCPN  37  36  93 E5        29.73F
LITCHFIELD     LGT RAIN  43  43 100 E6        29.71F
BUFFALO        DRIZZLE   41  38  90 NE3       29.72S
MAPLE LAKE     DRIZZLE   41  40  97 CALM      29.73R
$$
MNZ037-044-045-052-053-242000-
   East Central Minnesota

CITY           SKY/WX    TMP DP  RH WIND       PRES   REMARKS
PRINCETON      RAIN      41  37  87 CALM      29.73F
MORA           RAIN      36  34  93 SE7       29.75F
CAMBRIDGE      LGT RAIN  43  36  75 CALM      29.71F
RUSH CITY      DRIZZLE   40  39  94 E5        29.73F
MOOSE LAKE     LGT SNOW  32  32 100 E6        29.75F WCI  26
HINCKLEY       LGT RAIN  37  37 100 E6        29.75F
CLOQUET        SNOW      34  32  93 E10       29.78F VSB 1/2 WCI  26
MCGREGOR       CLOUDY    34  32  93 E6        29.76F WCI  29
$$
MNZ071>073-080-081-089-090-097-098-242000-
   Southwest Minnesota

CITY           SKY/WX    TMP DP  RH WIND       PRES   REMARKS
MONTEVIDEO     CLOUDY    48  46  93 NE3       29.72R
GRANITE FALLS  CLOUDY    47  42  84 NW6       29.73R
CANBY          PTSUNNY   50  44  81 NW8       29.74R
MARSHALL       CLOUDY    48  41  76 NW13      29.71S
REDWOOD FALLS  CLOUDY    46  43  89 CALM      29.70R
OLIVIA         CLOUDY    45  41  87 E5        29.69F
PIPESTONE      PTSUNNY   54  43  66 N13G21    29.72R
WINDOM         CLOUDY    48  45  87 NW14      29.69F
WORTHINGTON    PTSUNNY   50  39  66 N17       29.72F
JACKSON        CLOUDY    46  45  93 NW16      29.70R
TRACY          PTSUNNY   50  46  87 N10       29.71S
SLAYTON        CLOUDY    50  44  79 NW15      29.72S
$$
MNZ065>067-074>077-082>085-091>093-242000-
   South Central Minnesota

CITY           SKY/WX    TMP DP  RH WIND       PRES   REMARKS
MANKATO        CLOUDY    43  39  87 CALM      29.70R
NEW ULM        LGT RAIN  43  43 100 CALM      29.69F
ST JAMES       DRIZZLE   45  43  93 CALM      29.69F
FAIRMONT       CLOUDY    45  39  81 NW7       29.70F
GLENCOE        CLOUDY    43  40  88 E3        29.70S FOG
FARIBAULT      CLOUDY    45  39  81 CALM      29.68F HAZE
OWATONNA       CLOUDY    43  41  93 CALM      29.68S FOG
WASECA         CLOUDY    41  36  81 S5        29.69S FOG
ALBERT LEA     CLOUDY    45  45 100 SW3       29.66S FOG
$$
MNZ078>079-086>088-094>096-242000-
   Southeast Minnesota

CITY           SKY/WX    TMP DP  RH WIND       PRES   REMARKS
ROCHESTER      CLOUDY    42  40  92 SE10      29.67F FOG
RED WING       LGT RAIN  43  41  93 SE9       29.70S
STANTON        DRIZZLE   43  40  90 CALM      29.68F
DODGE CENTER   CLOUDY    45  45 100 SE10      29.66F FOG
WINONA         RAIN      43  41  93 SE8       29.71F
AUSTIN         CLOUDY    45  43  93 CALM      29.66F FOG
PRESTON        LGT RAIN  43  42  96 SE6       29.68S
$$
ABBREVIATIONS USED IN REMARKS
   TC - TEMPERATURES IN CELSIUS
  WCI - WIND CHILL INDEX
   HX - HEAT INDEX
  VSB - VISIBILITY
$$


USA.gov is the U.S. government's official web portal to all federal, state and local government web resources and services.